sat.trackr.live / text

‹ back to catalog

STARLINK-31923

NORAD 60600 · 2024-150T

PAYLOAD ACTIVE UNKNOWN

§ Identity

Operator
Country
US
Launch date
2024-08-20
Launch site
AFETR
Launch vehicle
Mass (kg)
RCS (m²)

Purposes: comms

External: N2YO · Heavens-Above · Gunter

§ Orbital elements

Epoch: 2026-05-24T17:53:05.210016Z

Period
94.11 min
Inclination
53.1615°
Eccentricity
0.0001160
Mean motion
15.30193855 rev/d
Perigee alt
474.4 km
Apogee alt
476.0 km
Semi-major
6,853.4 km
B*
4.1693e-5
RAAN
313.9085°
Arg perigee
82.2882°
Mean anomaly
277.8251°
Rev number
9,968

§ Raw data

STARLINK-319231 60600U 24150T   26144.74519919  .00000876  00000+0  41693-4 0  99932 60600  53.1615 313.9085 0001160  82.2882 277.8251 15.30193855 99686

JSON: /api/v1/satellites/60600 · /tle

For live sub-satellite position, see the globe view (requires WebGL).

§ Visibility from observer

Set your observer location to see the next 7 days of passes ≥ 10°. The values pass through the URL so the page stays shareable.

No JS? Fill the form by hand. The geolocation button needs JavaScript.